Other Public Products
Issued by NWS Grand Forks, ND

Home | Current Version | Previous Version | Text Only | Print | Product List | Glossary On
Versions: 1 2 3 4 5 6 7 8 9 10 11 12 13 14 15 16 17 18 19 20 21 22 23 24 25 26 27 28 29 30 31 32 33 34 35 36 37 38 39 40 41 42 43 44 45 46 47 48 49 50
000
FPUS83 KFGF 300110
OPUFGF
PRAIRIE TO PINES WEATHER ROUNDUP
NATIONAL WEATHER SERVICE EASTERN NORTH DAKOTA/GRAND FORKS ND
800 PM CDT WED MAR 29 2017

 **SATELLITE DATA USED TO AUGMENT SKY COVER AT AUTOMATED STATIONS**
 *****  WEATHER ACROSS EASTERN NORTH DAKOTA  *****

CITY           SKY/WX    TMP DP  RH WIND       PRES   REMARKS
GRAND FORKS    FAIR      53  42  66 S13       29.99F
GRAND FORKS AF CLOUDY    53  41  64 S16       29.99F
GRAND CITY NWS NOT AVBL
BUXTON         NOT AVBL
DEVILS LAKE    CLOUDY    48  39  71 S10       29.93F
FARGO          FAIR      54  36  50 S18G25    30.05S
WAHPETON ARPT  FAIR      46  36  66 S14       30.09R
$$

 *****  WEATHER ACROSS CENTRAL AND WESTERN NORTH DAKOTA  *****

CITY           SKY/WX    TMP DP  RH WIND       PRES   REMARKS
JAMESTOWN      FAIR      51  35  54 S10       29.97S
BISMARCK       FAIR      53  38  56 SE9       29.92F
MINOT          FAIR      51  45  79 SE6       29.86F
MINOT AFB      FAIR      48  46  93 SE7       29.85F
GARRISON         N/A     51  37  58 S5        29.86F
WILLISTON      FAIR      56  31  38 SW7       29.85F
DICKINSON      FAIR      51  30  44 NW8       29.85F
HETTINGER      CLOUDY    56  37  49 S10       29.91S
$$

 *****  OTHER OBSERVATIONS NORTHEAST NORTH DAKOTA  *****

CITY           SKY/WX    TMP DP  RH WIND       PRES   REMARKS
WALHALLA       NOT AVBL
LANGDON        FAIR      46  41  81 N5        29.93F
CAVALIER       FAIR      54  45  71 S9        29.94F
GRAFTON        FAIR      52  43  71 S14       29.99F
CANDO          NOT AVBL
FORT TOTTEN    NOT AVBL
ROLLA          LGT RAIN  43  43 100 W9        29.92S
RUGBY          NOT AVBL
 ***** THE ABOVE OBSERVATIONS ARE NON NWS ARE NOT QUALITY
        CONTROLLED AND MAY MIS-REPORT RAIN FOR SNOW...
$$

 *****  OTHER OBSERVATIONS SOUTHEAST NORTH DAKOTA *****

CITY           SKY/WX    TMP DP  RH WIND       PRES   REMARKS
COOPERSTOWN    FAIR      48  39  71 S13       29.99S
VALLEY CITY    FAIR      54  34  47 S14       30.01S
OAKES          NOT AVBL
GWINNER        CLEAR     50  36  57 MISG      30.04S
BUFFALO        NOT AVBL
WYNDMERE       NOT AVBL
 ***** THE ABOVE OBSERVATIONS ARE NON NWS ARE NOT QUALITY
       CONTROLLED AND MAY MIS-REPORT RAIN FOR SNOW...
$$

  *****  WEATHER ACROSS NORTHERN MINNESOTA  *****

CITY           SKY/WX    TMP DP  RH WIND       PRES   REMARKS
FLAG ISLAND    MOCLDY    39  30  70 S6        30.03S
WARROAD        FAIR      52  37  58 S9        30.03F
ROSEAU         FAIR      48  39  71 S8        30.02F
HALLOCK        FAIR      52  46  82 S13       29.97F
THF RVR FALLS  FAIR      50  38  63 S8        30.04F
HALSTAD          N/A     50  37  62 S16         N/A
FOSSTON        FAIR      45  36  70 S6        30.07S
BAUDETTE       FAIR      50  29  44 S9        30.05F
WASKISH        FAIR      48  34  57 SE6       30.08S
CROOKSTON      FAIR      54  39  58 S16       30.03F
$$
  *****  WEATHER ACROSS CENTRAL AND WEST MINNESOTA  *****

CITY           SKY/WX    TMP DP  RH WIND       PRES   REMARKS
BEMIDJI        FAIR      46  31  55 SE9       30.08S
PARK RAPIDS    FAIR      47  31  53 SE10      30.09S
WADENA         FAIR      45  36  70 SE8       30.10F
DETROIT LAKES  FAIR      46  32  57 S8        30.09S
MOORHEAD       FAIR      52  37  58 S15       30.07S
FERGUS FALLS   FAIR      46  36  66 S12       30.13R
ELBOW LAKE     FAIR      45  37  73 S10       30.11S
MORRIS MN      FAIR      45  37  76 SE13      30.10F
STAPLES        FAIR      46  32  57 SE7       30.12S
WHEATON        FAIR      46  36  66 SE9       30.12R
$$
  *****  WEATHER ELSEWHERE ACROSS MINNESOTA  *****

CITY           SKY/WX    TMP DP  RH WIND       PRES   REMARKS
DULUTH         FAIR      32  27  81 E10       30.19F WCI  24
INTRNTL FALLS  FAIR      44  30  57 SE8       30.10F
ELY            FAIR      34  23  64 SE5       30.19F
CLOQUET        FAIR      32  28  86 E8        30.19S WCI  25
BRAINERD       FAIR      45  32  60 SE3       30.14S
HIBBING        FAIR      36  28  73 SE8       30.16F
ALEXANDRIA     FAIR      44  35  70 SE7       30.12F
SAINT CLOUD    MOCLDY    45  38  76 SE5       30.13F
MINNEAPOLIS    LGT RAIN  45  39  79 SE8       30.16S
$$

  *****  WEATHER ACROSS SOUTH DAKOTA  *****

CITY           SKY/WX    TMP DP  RH WIND       PRES   REMARKS
SIOUX FALLS    LGT RAIN  40  39  97 E15       30.03F
BROOKINGS      CLOUDY    42  37  82 E14       30.05F
WATERTOWN      FAIR      42  35  76 E9        30.07F
HURON          FAIR      47  36  65 E10       30.04F
SISSETON         N/A     47  38  71 S14       30.08R
ABERDEEN       FAIR      50  33  52 SE14      30.04R
MITCHELL       CLOUDY    45  37  73 E14       30.05F
PIERRE         FAIR      50  33  52 SE15      29.99S
MOBRIDGE       CLOUDY    56  30  37 SE12      29.94S
RAPID CITY     FAIR      51  39  63 SE8       29.94F
$$

  *****  SOME WEATHER IN NEARBY STATES *****

CITY           SKY/WX    TMP DP  RH WIND       PRES   REMARKS
GLASGOW MT     FAIR      56  28  34 SW8       29.82F
GREAT FALLS MT FAIR      54  34  46 SW31G38   29.76F
CHEYENNE WY    FAIR      51  22  31 N9G25     29.97S
SCOTTSBLUFF NE FAIR      51  38  60 E14       29.95R
OMAHA NE       LGT RAIN  42  37  82 NE18G28   29.85R FOG
DES MOINES IA  LGT RAIN  44  42  93 E18G31    29.86F FOG
DAVENPORT IA   CLOUDY    44  39  82 E23G30    29.99S
CHICAGO IL     LGT RAIN  44  37  76 NE15      30.07F
EAU CLAIRE WI  LGT RAIN  43  38  82 SE7       30.18S
LA CROSSE WI   LGT RAIN  44  40  85 E12       30.15F FOG
$$

  *****  SOME NATIONAL WEATHER *****

CITY           SKY/WX    TMP DP  RH WIND       PRES   REMARKS
LA GUARDIA NY  FAIR      52  24  33 N17G23    30.17R
RALEIGH NC     FAIR      64  51  62 E6        30.08R
ATLANTA GA     MOCLDY    78  57  48 SE6       29.97S
NEW ORLEANS LA CLOUDY    75  67  76 SE12      29.88F
OKLAHOMA CITY  MOCLDY    50  41  71 NW16      29.79R
ALBUQUERQUE NM MOCLDY    61  29  29 VRB3      30.00R
SALT LAKE CITY MOCLDY    56  32  40 N5        30.10F
LOS ANGELES CA FAIR      69  46  43 W15       29.99F
BOISE ID       CLOUDY    55  46  71 S6        30.00S
SEATTLE WA     FAIR      52  44  74 SW14G30   29.92R
$$

*** WEATHER ACROSS MANITOBA...SASKATCHEWAN AND ONTARIO ***
                ***ONTARIO***

CITY           SKY/WX    TMP DP  RH WIND       PRES   REMARKS
GERALDTON      MOCLDY    34  18  51 SE3       30.29F
THUNDER BAY    MOCLDY    32  27  80 E7        30.29F
SIOUX LOOKOUT  MOCLDY    43  25  49 SE8       30.12F
TORONTO        CLOUDY    43  25  49 NE10      30.30R
BIG TROUT LK   CLOUDY    34  21  60 SE8       30.18F
PICKLE LAKE    MOCLDY    36  21  55 SE13      30.17F
DRYDEN         PTCLDY    45  27  49 SE13G18   30.09F
KENORA         CLOUDY    46  28  49 S10G18    30.04F
$$
                *** MANITOBA***

CITY           SKY/WX    TMP DP  RH WIND       PRES   REMARKS
BRANDON        MOCLDY    41  39  93 E5        29.87F
DAUPHIN        CLEAR     39  37  93 E5        29.84F
ISLAND LAKE    FLURRIES  34  28  80 E7        30.02F
PILOT MOUND      N/A     41  39  93 S14         N/A
THE PAS        DRIZZLE   36  30  80 E8        29.87F
THOMPSON       CLOUDY    39  19  45 E5        29.98F
WINNIPEG       LGT RAIN  52  45  76 S16G23    29.92F
LYNN LAKE      CLOUDY    37  27  65 SE8       29.92F
CHURCHILL      PTCLDY    18  14  86 SE7       30.14F WCI   8
GILLAM         PTCLDY    36  19  51 SE3       30.07F
$$
                ***SASKATCHEWAN***

CITY           SKY/WX    TMP DP  RH WIND       PRES   REMARKS
ESTEVAN        PTCLDY    50  36  57 SW5       29.82S
KINDERSLEY     MOCLDY    52  28  40 S7        29.73F
LLOYDMINSTER   MOCLDY    37  36  93 E8        29.77F FOG
PRINCE ALBERT  CLOUDY    37  34  87 NE6       29.82F
REGINA         PTCLDY    52  30  43 W6        29.78F
YORKTON        CLEAR     45  41  87 SE8       29.78S
N. BATTLEFORD  CLEAR     37  37 100 CALM      29.82S



USA.gov is the U.S. government's official web portal to all federal, state and local government web resources and services.